Holdrege, NE

3:09 AM CDT on April 25, 2017 (GMT -0500)
Brewster

Weather History for KHDE - September, 2013

Change the Weather History Date:

Sunday, September 29, 2013

  Actual Average Record
Temperature  
Mean Temperature 62 °F -  
Max Temperature 78 °F 75 °F 92 °F (1953)
Min Temperature 46 °F 46 °F 29 °F (1984)
Degree Days  
Heating Degree Days 4    
Growing Degree Days 12 (Base 50)    
Moisture  
Dew Point 41 °F    
Average Humidity 52    
Maximum Humidity 75    
Minimum Humidity 23    
Precipitation  
Precipitation 0.00 in - - ()
Sea Level Pressure  
Sea Level Pressure 29.98 in    
Wind  
Wind Speed 10 mph (SSW)    
Max Wind Speed 23 mph    
Max Gust Speed 31 mph    
Visibility 10 miles    
Events      
Averages and records for this station are not official NWS values.
T = Trace of Precipitation, MM = Missing Value Source: NWS Daily Summary

Daily Weather History Graph

Daily Weather History Graph

Search for Another Location

Airport or City:

Trip Planner

Search our weather history database for the weather conditions in past years. The results will help you decide how hot, cold, wet, or windy it might be!

Date:

Astronomy

Sep. 29, 2013 Rise Set
Actual Time 7:32 AM CDT 7:22 PM CDT
Civil Twilight 7:04 AM CDT 7:49 PM CDT
Nautical Twilight 6:33 AM CDT 8:21 PM CDT
Astronomical Twilight 6:01 AM CDT 8:53 PM CDT
Moon 2:14 AM CDT (9/29) 4:20 PM CDT (9/29)
Length of Visible Light 12h 44m
Length of Day
11h 50m
Waning Crescent, 27% of the Moon is Illuminated
Sep 29
Waning Crescent
Oct 4
New
Oct 11
First Quarter
Oct 18
Full
Oct 26
Last Quarter

Hourly Weather History & Observations

Time (CDT) Temp. Dew Point Humidity Pressure Visibility Wind Dir Wind Speed Gust Speed Precip Events Conditions
12:15 AM 50.2 °F 39.4 °F 66% 30.09 in 10.0 mi South 5.8 mph - N/A   Clear
12:35 AM 50.4 °F 39.2 °F 66% 30.09 in 10.0 mi South 6.9 mph - N/A   Clear
12:55 AM 49.1 °F 39.4 °F 69% 30.09 in 10.0 mi SSW 6.9 mph - N/A   Clear
1:15 AM 48.7 °F 39.7 °F 71% 30.09 in 10.0 mi SSW 6.9 mph - N/A   Clear
1:35 AM 49.1 °F 39.6 °F 70% 30.09 in 10.0 mi SSW 6.9 mph - N/A   Clear
1:55 AM 49.6 °F 39.6 °F 68% 30.09 in 10.0 mi SSW 8.1 mph - N/A   Clear
2:15 AM 49.5 °F 39.2 °F 68% 30.09 in 10.0 mi SSW 6.9 mph - N/A   Clear
2:35 AM 49.3 °F 39.2 °F 68% 30.09 in 10.0 mi SSW 6.9 mph - N/A   Clear
2:55 AM 48.6 °F 39.2 °F 70% 30.08 in 10.0 mi SSW 6.9 mph - N/A   Clear
3:15 AM 48.4 °F 39.6 °F 72% 30.07 in 10.0 mi SW 8.1 mph - N/A   Clear
3:35 AM 48.4 °F 39.7 °F 72% 30.07 in 10.0 mi SW 8.1 mph - N/A   Clear
3:55 AM 48.6 °F 39.4 °F 71% 30.07 in 10.0 mi SW 6.9 mph - N/A   Clear
4:15 AM 48.4 °F 39.7 °F 72% 30.07 in 10.0 mi SW 8.1 mph - N/A   Clear
4:35 AM 48.6 °F 39.4 °F 71% 30.07 in 10.0 mi SW 8.1 mph - N/A   Clear
4:55 AM 48.2 °F 39.6 °F 72% 30.06 in 10.0 mi SW 6.9 mph - N/A   Clear
5:15 AM 47.5 °F 39.2 °F 73% 30.06 in 10.0 mi SW 6.9 mph - N/A   Clear
5:35 AM 47.1 °F 39.4 °F 74% 30.06 in 10.0 mi SW 6.9 mph - N/A   Clear
5:55 AM 47.3 °F 39.6 °F 74% 30.06 in 10.0 mi SW 6.9 mph - N/A   Clear
6:15 AM 47.7 °F 39.4 °F 73% 30.06 in 10.0 mi SW 5.8 mph - N/A   Clear
6:35 AM 48.0 °F 39.4 °F 72% 30.06 in 10.0 mi SW 6.9 mph - N/A   Clear
6:55 AM 46.9 °F 39.4 °F 75% 30.05 in 10.0 mi SW 8.1 mph - N/A   Clear
7:15 AM 46.9 °F 39.4 °F 75% 30.06 in 10.0 mi SW 8.1 mph - N/A   Clear
7:35 AM 47.1 °F 39.2 °F 74% 30.05 in 10.0 mi SW 8.1 mph - N/A   Clear
7:55 AM 47.3 °F 39.6 °F 74% 30.05 in 10.0 mi SW 6.9 mph - N/A   Clear
8:15 AM 48.4 °F 40.1 °F 73% 30.05 in 10.0 mi SW 8.1 mph - N/A   Clear
8:35 AM 51.1 °F 40.1 °F 66% 30.05 in 10.0 mi SW 10.4 mph - N/A   Clear
8:55 AM 53.1 °F 40.5 °F 62% 30.05 in 10.0 mi SW 8.1 mph - N/A   Clear
9:15 AM 54.7 °F 41.0 °F 60% 30.05 in 10.0 mi SW 9.2 mph - N/A   Clear
9:35 AM 56.7 °F 41.2 °F 56% 30.04 in 10.0 mi SW 10.4 mph - N/A   Clear
9:55 AM 58.6 °F 40.8 °F 52% 30.04 in 10.0 mi SW 10.4 mph 17.3 mph N/A   Clear
10:15 AM 60.3 °F 40.6 °F 48% 30.04 in 10.0 mi SW 11.5 mph - N/A   Clear
10:35 AM 61.7 °F 39.6 °F 44% 30.04 in 10.0 mi SW 11.5 mph 17.3 mph N/A   Clear
10:55 AM 62.6 °F 40.1 °F 44% 30.04 in 10.0 mi SW 12.7 mph 18.4 mph N/A   Clear
11:15 AM 63.9 °F 40.5 °F 42% 30.04 in 10.0 mi SW 15.0 mph 18.4 mph N/A   Clear
11:35 AM 65.3 °F 41.4 °F 42% 30.02 in 10.0 mi SW 12.7 mph 16.1 mph N/A   Clear
11:55 AM 67.3 °F 42.3 °F 40% 30.02 in 10.0 mi SSW 10.4 mph - N/A   Clear
12:15 PM 68.5 °F 42.6 °F 39% 30.01 in 10.0 mi SSW 12.7 mph - N/A   Clear
12:35 PM 70.7 °F 41.5 °F 35% 30.00 in 10.0 mi SSW 12.7 mph 20.7 mph N/A   Clear
12:55 PM 72.1 °F 41.9 °F 34% 29.99 in 10.0 mi South 12.7 mph 20.7 mph N/A   Clear
1:15 PM 74.5 °F 42.4 °F 32% 29.97 in 10.0 mi South 16.1 mph 20.7 mph N/A   Clear
1:35 PM 74.8 °F 40.6 °F 29% 29.96 in 10.0 mi South 15.0 mph 21.9 mph N/A   Clear
1:55 PM 76.1 °F 39.6 °F 27% 29.95 in 10.0 mi SSW 17.3 mph 23.0 mph N/A   Clear
2:15 PM 76.5 °F 37.8 °F 25% 29.93 in 10.0 mi South 21.9 mph 26.5 mph N/A   Clear
2:35 PM 76.5 °F 39.2 °F 26% 29.92 in 10.0 mi South 19.6 mph 27.6 mph N/A   Clear
2:55 PM 77.0 °F 39.2 °F 26% 29.91 in 10.0 mi SSW 19.6 mph 26.5 mph N/A   Clear
3:15 PM 77.2 °F 37.6 °F 24% 29.90 in 10.0 mi SSW 20.7 mph - N/A   Clear
3:35 PM 77.9 °F 37.4 °F 23% 29.90 in 10.0 mi SSW 20.7 mph 28.8 mph N/A   Clear
3:55 PM 77.4 °F 38.7 °F 25% 29.89 in 10.0 mi SSW 23.0 mph 27.6 mph N/A   Clear
4:15 PM 77.4 °F 38.7 °F 25% 29.89 in 10.0 mi South 23.0 mph 26.5 mph N/A   Clear
4:35 PM 77.2 °F 38.3 °F 25% 29.88 in 10.0 mi SSW 19.6 mph 31.1 mph N/A   Clear
4:55 PM 77.0 °F 39.2 °F 26% 29.87 in 10.0 mi South 17.3 mph 28.8 mph N/A   Clear
5:15 PM 76.6 °F 39.0 °F 26% 29.88 in 10.0 mi SSW 18.4 mph 25.3 mph N/A   Clear
5:35 PM 76.3 °F 38.5 °F 26% 29.87 in 10.0 mi South 20.7 mph 28.8 mph N/A   Clear
5:55 PM 75.6 °F 39.9 °F 28% 29.86 in 10.0 mi South 19.6 mph - N/A   Clear
6:15 PM 73.6 °F 39.9 °F 30% 29.86 in 10.0 mi South 16.1 mph 21.9 mph N/A   Clear
6:35 PM 72.9 °F 40.6 °F 31% 29.87 in 10.0 mi South 11.5 mph 17.3 mph N/A   Clear
6:55 PM 71.8 °F 41.4 °F 33% 29.87 in 10.0 mi South 8.1 mph - N/A   Clear
7:15 PM 69.6 °F 41.5 °F 36% 29.86 in 10.0 mi South 9.2 mph - N/A   Clear
7:35 PM 67.6 °F 41.9 °F 39% 29.87 in 10.0 mi South 9.2 mph - N/A   Clear
7:55 PM 65.8 °F 42.3 °F 42% 29.86 in 10.0 mi SSE 9.2 mph - N/A   Clear
8:15 PM 64.2 °F 43.0 °F 46% 29.87 in 10.0 mi South 9.2 mph - N/A   Clear
8:35 PM 62.6 °F 43.3 °F 49% 29.86 in 10.0 mi South 9.2 mph - N/A   Clear
8:55 PM 61.9 °F 43.0 °F 50% 29.87 in 10.0 mi South 9.2 mph - N/A   Clear
9:15 PM 60.8 °F 43.2 °F 52% 29.87 in 10.0 mi South 6.9 mph - N/A   Clear
9:35 PM 60.4 °F 42.8 °F 52% 29.87 in 10.0 mi South 10.4 mph - N/A   Clear
9:55 PM 58.6 °F 43.7 °F 58% 29.87 in 10.0 mi South 6.9 mph - N/A   Clear
10:15 PM 58.1 °F 43.7 °F 59% 29.87 in 10.0 mi South 8.1 mph - N/A   Clear
10:35 PM 56.5 °F 44.6 °F 64% 29.87 in 10.0 mi South 6.9 mph - N/A   Clear
10:55 PM 56.3 °F 44.6 °F 65% 29.87 in 10.0 mi South 6.9 mph - N/A   Clear
11:15 PM 56.3 °F 44.2 °F 64% 29.87 in 10.0 mi South 8.1 mph - N/A   Clear
11:35 PM 56.7 °F 43.9 °F 62% 29.87 in 10.0 mi South 8.1 mph - N/A   Clear
11:55 PM 56.5 °F 43.9 °F 63% 29.87 in 10.0 mi South 9.2 mph - N/A   Clear